User: anonymous   Login
Location: Unspecified
(0.0000°N, 0.0000°E)
Time: 14:52:05
(UTC+00:00)
Language:

N. Korean satellite - Orbit

View from above orbital plane
View from above orbital plane
View from above satellite
View from above satellite

Ground track
Ground track

The orbit data is extracted from the following two-line orbital elements,

1 39026U 12072A   19115.16897997  .00001391  00000-0  53174-4 0  9993
2 39026  97.2119 120.0886 0036554 296.4191  63.3299 15.27670271353271
Epoch (UTC): 25 April 2019 04:03:19
Eccentricity: 0.0036554
inclination: 97.2119°
perigee height: 458 km
apogee height: 508 km
right ascension of ascending node: 120.0886°
argument of perigee: 296.4191°
revolutions per day: 15.27670271
mean anomaly at epoch: 63.3299°
orbit number at epoch: 35327

The dashed part of the orbit path shows where the satellite is in the earth's shadow,  

DLR